Погода в Чемеровцах

Украина / Хмельницкая область     49°00′43″N   26°21′07″E
темп.,
°C
ветер,
м/с
пор.,
м/с
влажн.,
%
обл.,
%
осадки,
мм/ч
давл.,
гПа
погр.,
м
24 сентября, пт
пт2400:00+9ююз4970100 0.0 1013219
03:00+9юз51467100 0.1 1010453
06:00+11юз71464100 0.3 1007933
09:00+11з81881100 1.7 10051230
12:00+14зсз101869100 0.4 10061785
15:00+14зсз91461100 0.8 10071904
18:00+13зсз91465100 0.1 10081330
21:00+11зсз91675100 0.1 1011885
25 сентября, сб
сб2500:00+10зсз8157698 0.0 1012834
03:00+10зсз7157655 0.0 1013629
06:00+9зсз6147410 0.0 1015481
09:00+10зсз51375100 0.0 1016516
12:00+14зсз6137297 0.0 1017734
15:00+18зсз7116143 0.0 1017968
18:00+17з6136082 0.0 1017697
21:00+13з4117550 0.0 1019215
26 сентября, вс
вс2600:00+15з51461100 0.0 1019473
03:00+15зсз4126251 0.0 1020476
06:00+12зсз38774 0.0 1020169
09:00+14сз49805 0.0 1021353
12:00+19сз566127 0.0 10221028
15:00+21сз465346 0.0 10211252
18:00+19с466299 0.0 1020314
21:00+13св367537 0.0 1021121
27 сентября, пн
пн2700:00+11всв34725 0.0 102270
03:00+10в22785 0.0 102238
06:00+9в348521 0.0 102270
09:00+11в35745 0.0 1022235
12:00+16вюв445413 0.0 1022846
15:00+19в33445 0.0 10211194
18:00+17в35498 0.0 1020186
21:00+12в410605 0.0 1022188
28 сентября, вт
вт2800:00+10в4116811 0.0 1022235
03:00+9в4106893 0.0 1023266
06:00+8в5107496 0.0 1023219
09:00+10в6106849 0.0 1023339
12:00+15вюв674972 0.0 10241082
15:00+17вюв554596 0.0 10231710
18:00+15вюв4546100 0.0 1023203
21:00+13вюв5954100 0.0 1025631